www.pogodaiklimat.ru

Погода и климат >> Архив погоды >> Аргентина >> Buenos Aires


ПОГОДА в Buenos Aires

  • Прогноз погоды в Buenos Aires
  • Монитор погоды в Buenos Aires
  • Климат города

АРХИВ ПОГОДЫ в Buenos Aires

Время (UTC), дата Ветер
(напр.,м/с)
 
Видим.   Явления Облачность Т
(С)
Тd
(С)
f
(%)
Тe
(С)
Тes
(С)
Комфортность P
(гПа)
Po
(гПа)
Тmin
(С)
Tmax
(С)
R
(мм)
S
(см)
03 21.03 СВ 2 10 км 6/6 450 м
[Sc Ci sp]
+20.8 +18.4 86 +26 +26 душно 1023.2 1020.2
06 21.03 С 1 10 км 1/0
[Ac As]
+20.2 +17.1 82 +24 +24 комфорт 1023.0 1020.0
09 21.03 СВ 2 10 км 8/8 450 м
[St]
+19.6 +16.8 84 +22 +22 комфорт 1023.4 1020.4
12 21.03 СВ 2 10 км 8/5 450 м
[Sc Ac cast Ci fib]
+20.1 +16.7 81 +24 +25 комфорт 1024.5 1021.6 +19.1 +21.0
15 21.03 С 3 10 км 5/4 450 м
[Sc Cc]
+23.0 +17.1 69 +28 +35 душно 1023.9 1020.9
18 21.03 СВ 2 10 км 3/3 600 м
[Cu hum]
+25.0 +17.2 62 +29 +37 душно 1021.9 1019.0
21 21.03 В 3 10 км 5/0
[Ci]
+23.4 +17.0 67 +29 +29 душно 1021.0 1018.0
00 22.03 В 4 10 км 4/4 450 м
[Sc]
+21.6 +18.6 83 +26 +26 душно 1021.5 1018.5 +20.1 +25.6
03 22.03 В 2 10 км 9/4 450 м
[Sc Ac As]
+21.8 +19.2 85 +27 +27 душно 1021.6 1018.8
06 22.03 С 3 10 км 9/0
[Ac As]
+21.7 +17.9 79 +26 +26 душно 1021.0 1018.1
09 22.03 СВ 2 10 км 4/0
[Ac As]
+20.2 +18.3 89 +24 +24 комфорт 1020.5 1017.6
12 22.03 СВ 3 10 км 10/10 330 м
[St]
+21.2 +18.5 85 +26 +26 душно 1021.5 1018.5 +20.1 +21.9
15 22.03 СВ 2 10 км 9/9 450 м
[Sc]
+23.5 +19.7 79 +29 +30 душно 1020.9 1018.0
18 22.03 С 3 10 км 9/5 450 м
[Cu Sc Ac trans Ci fib]
+24.7 +19.5 73 +30 +33 очень
душно
1019.1 1016.2
21 22.03 В 1 10 км 6/1 450 м
[Sc Ac As Ci fib]
+24.0 +19.2 75 +29 +30 душно 1018.5 1015.6
00 23.03 В 2 10 км 6/3 600 м
[Sc Ac As]
+22.0 +19.8 87 +28 +28 душно 1018.8 1016.0 +21.2 +25.5
06 23.03 штиль 0 10 км 4/4 600 м
[Sc]
+20.2 +18.9 92 +23 +23 комфорт 1017.3 1014.4
09 23.03 штиль 0 10 км 3/1 450 м
[St Ac As]
+18.6 +18.3 98 +20 +20 1016.7 1013.8
12 23.03 СВ 1 10 км 9/9 450 м
[St]
+21.8 +19.3 86 +27 +28 душно 1017.7 1014.8 +18.5 +22.2
15 23.03 С 2 10 км 6/4 450 м
[Sc Ac As]
+24.0 +19.4 75 +29 +36 душно 1017.3 1014.4
18 23.03 С 4 10 км 4/1 540 м
[Cu med, cong Ac und]
+25.9 +19.1 66 +31 +36 очень
душно
1014.9 1012.0
21 23.03 СЗ 1 10 км в посл. час гроза 6/3 540 м
[Sc Ac As Ci fib]
+25.0 +19.5 72 +30 +31 душно 1014.5 1011.6
00 24.03 СВ 2 10 км {гроза} 9/4 450 м
[Sc Ac As Cs]
+23.5 +20.6 84 +29 +29 душно 1014.8 1012.0 +21.8 +26.5
03 24.03 С 2 10 км 4/4 500 м
[Sc Ci fib]
+22.5 +20.4 88 +29 +29 очень
душно
1015.1 1012.2
06 24.03 З 1 10 км ясно +20.3 +20.0 98 +25 +25 комфорт 1014.2 1011.3
09 24.03 штиль 0 10 км ясно +19.6 +19.4 99 +22 +22 комфорт 1014.0 1011.0
12 24.03 ЮВ 2 10 км ясно +23.1 +20.7 86 +30 +34 очень
душно
1015.4 1012.5 +19.1 +23.5
15 24.03 штиль 0 10 км 9/9 450 м
[Cu Sc]
+25.5 +19.5 69 +31 +33 очень
душно
1015.4 1012.5
18 24.03 ЮЗ 2 10 км {дождь} 5/1 450 м
[St Cs]
+26.3 +20.3 70 +33 +42 очень
душно
1013.8 1010.9 13
21 24.03 Ю 2 10 км ясно +25.4 +17.9 63 +30 +30 душно 1013.0 1010.1
00 25.03 СВ 1 10 км ясно +22.5 +19.9 85 +29 +29 очень
душно
1014.0 1011.0 +22.3 +27.2
03 25.03 СВ 1 10 км 3/3 450 м
[Sc]
+22.5 +21.0 91 +29 +29 очень
душно
1014.7 1011.8
06 25.03 СВ 1 10 км ясно +21.0 +20.4 96 +27 +27 душно 1014.3 1011.4
09 25.03 штиль 0 10 км ясно +20.0 +19.7 98 +23 +23 комфорт 1014.9 1012.0
12 25.03 С 1 10 км 1/1 540 м
[Cu hum Ci fib]
+24.1 +20.1 78 +30 +33 очень
душно
1016.1 1013.2 +19.8 +24.1 13
15 25.03 С 3 10 км 1/0
[Ci fib]
+27.0 +20.4 67 +33 +44 очень
душно
1016.6 1013.7
18 25.03 СВ 2 10 км 1/1 540 м
[Cu hum]
+28.1 +19.4 59 +34 +43 очень
душно
1015.3 1012.4
21 25.03 СВ 2 10 км ясно +25.8 +19.4 68 +31 +32 очень
душно
1014.1 1011.2
00 26.03 В 2 10 км ясно +23.4 +19.4 78 +30 +30 очень
душно
1015.0 1012.1 +23.4 +28.4
03 26.03 С 3 10 км 1/0
[Ac As]
+23.8 +19.5 77 +29 +29 душно 1015.0 1012.1
06 26.03 С 6 10 км 3/3 600 м
[Sc]
+22.4 +18.6 79 +28 +28 душно 1015.1 1012.2
09 26.03 СЗ 5 10 км 8/5 450 м
[St Cs]
+21.2 +18.5 85 +26 +26 душно 1015.1 1012.2
12 26.03 С 4 10 км 9/6 540 м
[St Ac As]
+21.1 +18.7 86 +25 +26 комфорт 1016.3 1013.4 +21.0 +24.1
15 26.03 С 5 10 км 10/10 540 м
[Sc]
+23.2 +18.8 76 +29 +29 душно 1015.5 1012.6
18 26.03 СВ 2 10 км 8/8 540 м
[Sc]
+25.4 +19.1 68 +30 +33 душно 1013.9 1011.0
21 26.03 СВ 2 10 км в посл. час дождь 8/3 570 м
[Sc Ac und]
+25.7 +19.1 67 +31 +31 очень
душно
1013.7 1010.8
00 27.03 СВ 4 10 км {дождь} ясно +24.3 +19.4 74 +29 +29 душно 1014.3 1011.4 +21.1 +25.8 0.0
03 27.03 С 4 10 км ясно +23.3 +19.6 80 +30 +30 очень
душно
1015.6 1012.8
06 27.03 С 1 10 км 5/5 450 м
[Sc]
+22.2 +19.2 83 +28 +28 душно 1016.3 1013.4
09 27.03 С 4 10 км 5/5 450 м
[Sc]
+21.4 +19.4 88 +26 +26 душно 1016.6 1013.7
12 27.03 С 3 10 км 4/4 450 м
[St]
+22.0 +19.8 87 +28 +30 душно 1017.8 1014.9 +21.1 +24.5 0.0
15 27.03 В 2 10 км 6/6 450 м
[Sc]
+23.9 +20.2 80 +30 +35 очень
душно
1018.9 1016.0
18 27.03 СВ 2 10 км ясно +27.2 +19.9 64 +33 +43 очень
душно
1017.9 1015.0
21 27.03 СВ 3 10 км ясно +25.4 +21.1 77 +32 +32 очень
душно
1018.0 1015.2
00 28.03 СВ 2 10 км 3/0
[Ac As]
+23.4 +20.0 81 +30 +30 очень
душно
1019.0 1016.1 +22.0 +28.5

 

Местоположение метеостанции Buenos Aires (Аргентина): широта -34.58 долгота -58.48 высота над уровнем моря 25 м.

В архиве по умолчанию представлена погода в Buenos Aires за последнюю неделю. Архивные данные за месяц целиком и за предыдущие месяцы, начиная с января 2011 года, Вы можете получить, выбрав интересующий диапазон дат из раскрывающегося списка и нажав кнопку "Ввод!".

Внимание! Время в таблицах - всемирное. Для получения местного времени необходимо прибавить поправку, которая в Buenos Aires равна -3 ч.

Смотрите также архив погоды в соседних городах и на ближайших метеорологических станциях:

Погода в Buenos Aires Aeropuerto (Аргентина) (7 км)
Погода в Ezeiza (Аргентина) (26 км)
Погода в Colonia (Уругвай) (61 км)
Погода в La Plata (Аргентина) (68 км)
Погода в Mercedes (Уругвай) (153 км)
Погода в Las Flores (Аргентина) (175 км)
Погода в Gualeguaychu (Аргентина) (176 км)
Погода в Melilla (Уругвай) (205 км)
Погода в Dolores (Аргентина) (205 км)
Погода в Prado (Уругвай) (211 км)

Пояснения к столбцам:

Ветер - указаны скорость ветра в м/с - средняя за 10 мин, порывы в срок и между сроками (в фигурных скобках) и направление, откуда дует ветер: С - северный, СВ - северо-восточный, В - восточный, ЮВ - юго-восточный, Ю - южный, ЮЗ - юго-западный, З - западный, СЗ - северо-западный.
Видимость - горизонтальная дальность видимости в метрах или километрах. При видимости от 1 до 10 км при отсутствии осадков обычно наблюдается дымка, при ухудшении видимости до 1 км и менее - туман. В сухую погоду видимость может ухудшаться дымом, пылью или мглою.
Явления - указаны атмосферные явления, наблюдавшиеся в срок или в последний час перед сроком; фигурными скобками обозначены явления, наблюдавшиеся между сроками (за 1-3 часа до срока); квадратными скобками обозначены град или гололедные отложения с указанием их диаметра в мм.
Облачность - указаны через наклонную черту общая и нижняя облачность в баллах и высота нижней границы облаков в метрах; квадратными скобками обозначены формы облаков: Ci - перистые, Cs - перисто-слоистые, Cc - перисто-кучевые, Ac - высококучевые, As - высокослоистые, Sc - слоисто-кучевые, Ns - слоисто-дождевые, Cu - кучевые, Cb - кучево-дождевые. Подробнее классификацию облаков см. в Атласе облаков (PDF).
T - Температура воздуха - температура, измеренная на высоте 2 м над землей.
Td - Температура точки росы - температура, при понижении до которой содержащийся в воздухе водяной пар достигнет насыщения.
f - Относительная влажность воздуха - влажноcть воздуха, измеренная на высоте 2 м над землей.
Te - Эффективная температура - температура, которую ощущает одетый по сезону человек в тени. Характеристика душности погоды. При расчете учитывается влияние влажности воздуха и скорости ветра на теплоощущения человека.
Tes - Эффективная температура на солнце - температура, которую ощущает человек, с поправкой на солнечный нагрев. Характеристика знойности погоды. Зависит от высоты солнца над горизонтом, облачности и скорости ветра. Ночью, в пасмурную погоду, а также при ветре 12 м/с и более поправка равна нулю.
P - Атмосферное давление - приведенное к уровню моря атмосферное давление.
Po - Атмосферное давление - измеренное на уровне метеостанции атмосферное давление.
Tmin - Минимальная температура - минимум температуры воздуха на высоте 2 м над землей.
Tmax - Максимальная температура - максимум температуры воздуха на высоте 2 м над землей.
R - Количество осадков - Количество выпавших осадков, мм. При наведении курсора мыши на число - период времени, за который выпало указанное количество осадков.
S - Снежный покров - Высота снежного покрова, см. При наведении курсора мыши на число - состояние снежного покрова и степень покрытия местности в баллах.